Flag for Qatar Weather past 2 weeks in Al Khor, Qatar

Now
73 °F

Passing clouds.


Feels Like: 77 °F
Forecast: 58 / 73 °F
Wind: 7 mph from North

Location: Doha International Airport

Current Time: Dec 19, 2014 at 2:15:15 PM

Latest Report: Dec 19, 2014 at 1:30 PM


Visibility: N/A

Pressure: 30.18 "Hg

Humidity: 53%

Dew point: 55 °F

Location of Al KhorLocation

Historic Weather in Al Khor — Graph

°F

Al Khor temperature yesterday

Maximum temperature yesterday: 75 °F (at 1:00 PM)
Minimum temperature yesterday: 66 °F (at 4:00 AM)
Average temperature yesterday: 69 °F

Past Weeks' High & Low Weather Summary

 TemperatureHumidityPressure
High82 °F (Dec 11, 1:30 PM)100% (Dec 11, 3:00 AM)30.27 "Hg (Dec 11, 3:00 AM)
Low63 °F (Dec 11, 3:00 AM)28% (Dec 11, 1:30 PM)30.04 "Hg (Dec 11, 2:00 PM)
Average72 °F73%30.13 "Hg
* Reported Dec 4 1:00 PM — Dec 19 1:00 PM, Al Khor, Weather by CustomWeather, © 2014

Note: Actual official high and low records may vary slightly from our data, if they occured in-between our weather recording intervals... More about our weather records

Advertising

Al Khor weather history for previous 24 hours

 ConditionsComfort  
Time TempWeatherWind HumidityBarometerVisibility
1:00 PM
Dec 19
72 °FPassing clouds.8 mph57%30.18 "HgN/A
12:30 PM72 °FPassing clouds.5 mph57%30.18 "HgN/A
12:00 PM72 °FPassing clouds.7 mph57%30.21 "HgN/A
11:00 AM70 °FPassing clouds.8 mph60%30.24 "HgN/A
10:30 AM70 °FPassing clouds.7 mph60%30.24 "HgN/A
10:00 AM68 °FPassing clouds.7 mph64%30.27 "HgN/A
9:00 AM66 °FPassing clouds.8 mph68%30.27 "HgN/A
8:30 AM64 °FPassing clouds.6 mph68%30.27 "HgN/A
8:00 AM64 °FPassing clouds.7 mph68%30.27 "HgN/A
7:30 AM63 °FClear.5 mph73%30.27 "Hg6 mi
6:00 AM63 °FClear.5 mph73%30.24 "Hg5 mi
5:00 AM63 °FPassing clouds.6 mph77%30.21 "HgN/A
4:00 AM64 °FPassing clouds.5 mph83%30.21 "HgN/A
3:00 AM64 °FPassing clouds.6 mph73%30.21 "HgN/A
2:00 AM64 °FClear.5 mph73%30.21 "Hg10 mi
1:00 AM66 °FPassing clouds.5 mph64%30.21 "HgN/A
12:00 AM66 °FPassing clouds.8 mph64%30.21 "HgN/A
11:00 PM
Dec 18
66 °FPassing clouds.6 mph64%30.24 "HgN/A
10:00 PM66 °FPassing clouds.8 mph60%30.24 "HgN/A
9:00 PM68 °FPassing clouds.7 mph56%30.21 "HgN/A
Weather by CustomWeather, © 2014

See weather overviewHow to use our weather pages